CAPE
0 0 0 0 0 0 0 0 0 0 0 0 0 0 0 0 0 0 0 0 0 0 0 0 0 0 0 0 0 0 0 0 106 140 134 90 55 63 63 33 1 3 2 0
0 0 0 0 0 0 0 0 0 0 0 0 0 0 0 0 0 0 0 0 0 0 0 0 0 0 0 0 0 0 0 0 0 97 118 97 53 53 86 46 9 1 1 1
0 0 0 0 0 0 0 0 0 0 0 0 0 0 0 0 0 0 0 0 0 0 0 0 0 0 0 0 0 0 0 0 0 0 17 75 34 37 20 32 9 3 2 1
0 0 0 0 0 0 0 0 0 0 0 0 0 0 0 0 0 0 0 0 0 0 0 0 0 0 0 0 0 0 0 0 0 0 0 8 20 5 6 20 8 9 1 1
0 0 0 0 0 0 0 0 0 0 0 0 0 0 0 0 0 0 0 0 0 0 0 0 0 0 0 0 0 0 0 0 0 0 0 0 22 2 0 1 4 9 1 2
0 0 0 0 0 0 0 0 0 0 0 0 0 0 0 0 0 0 0 0 0 0 0 0 0 0 0 0 0 0 0 0 0 0 0 0 31 62 11 1 0 1 1 2
0 0 0 0 0 0 0 0 0 0 0 0 0 0 0 0 0 0 0 1 0 0 0 2 3 0 0 0 0 0 0 0 0 0 0 0 0 80 5 0 1 1 1 1
0 0 0 0 0 0 0 0 0 0 0 0 0 0 0 0 0 0 0 0 0 0 2 0 0 0 0 0 0 0 0 0 0 0 0 0 0 37 2 1 3 1 2 2
0 0 0 0 0 0 0 0 0 1 0 0 0 0 0 0 0 0 1 6 5 6 3 0 0 0 1 1 0 0 0 0 0 0 0 0 0 12 0 3 2 2 3 3
0 0 0 0 0 0 0 0 0 0 0 0 0 0 0 0 0 0 2 4 9 6 1 1 2 2 2 2 1 0 0 1 0 0 0 0 0 0 1 2 2 2 2 3
0 0 0 0 0 0 0 0 0 0 0 0 0 0 0 0 0 0 2 5 6 2 3 3 5 4 2 4 1 2 3 2 1 3 0 0 1 0 1 2 4 4 6 6
0 0 0 0 0 0 0 0 0 0 0 0 0 0 0 0 0 0 1 4 2 2 1 1 3 4 3 4 3 3 2 3 0 1 2 0 0 3 2 4 7 7 6 4
0 0 0 0 0 0 0 0 0 0 0 0 0 0 0 0 0 0 1 1 2 2 1 1 2 3 3 1 1 3 3 3 0 1 0 1 4 5 7 9 8 3 3 3
0 0 0 0 0 0 0 0 0 0 0 0 0 0 0 0 0 1 1 1 1 0 0 0 1 1 1 1 1 2 2 2 0 1 2 3 7 10 11 7 3 2 3 3
0 0 0 0 0 0 0 0 0 0 0 0 0 0 0 0 0 1 1 1 1 1 1 0 1 1 1 1 1 2 2 2 2 2 3 3 4 4 3 3 2 1 2 3
0 0 0 0 0 0 0 0 0 0 0 0 0 0 0 0 0 1 1 1 2 1 1 0 0 1 1 1 1 2 3 3 3 4 3 1 1 3 3 4 4 4 3 4
0 0 0 0 0 0 0 0 0 0 0 0 0 0 0 0 0 2 0 2 1 1 1 0 0 1 1 1 1 1 3 2 4 4 3 4 4 2 4 4 3 3 2 2
0 0 0 0 0 0 0 0 0 0 0 0 0 0 0 0 0 0 2 2 1 1 1 0 0 0 0 0 0 0 1 2 2 2 2 2 3 2 2 3 2 2 2 2
0 0 0 0 0 0 0 0 0 0 0 0 0 0 0 0 0 0 0 2 2 1 1 0 0 0 0 0 1 0 0 1 1 1 1 2 2 2 2 1 1 2 1 2
3 0 0 0 0 0 0 0 0 0 0 0 0 0 0 0 0 0 0 3 2 1 1 0 0 0 0 0 0 0 1 1 1 1 0 0 0 0 1 0 2 1 0 0
0 0 0 0 0 0 0 0 0 0 0 0 0 0 0 0 1 1 0 0 2 3 2 0 0 0 0 0 0 1 1 1 1 1 1 1 2 2 2 2 0 0 0 0
0 0 0 0 0 0 0 0 0 0 0 0 0 0 0 0 1 0 0 0 0 0 0 0 0 0 0 0 0 1 0 0 1 2 2 2 2 2 2 0 0 0 0 0
0 0 0 0 0 0 0 0 0 0 0 0 0 0 0 0 0 0 0 0 0 0 0 0 0 0 0 0 0 0 0 0 0 0 2 2 2 0 1 0 0 0 0 0
0 0 0 0 0 0 0 0 0 0 0 0 0 0 0 0 0 0 0 0 0 0 0 0 0 0 0 0 0 0 0 0 0 0 0 0 0 0 0 0 0 0 0 0
0 0 0 0 0 0 0 0 0 0 0 0 0 0 0 0 0 0 0 0 0 0 0 0 0 0 0 0 0 0 0 0 0 0 0 0 0 0 0 0 0 0 0 0
0 0 0 0 0 0 0 0 0 0 0 0 0 0 0 0 0 0 0 0 0 0 0 0 0 0 0 0 0 0 0 0 0 0 0 0 0 0 0 0 0 0 0 0
CIN
0 0 0 0 0 0 0 0 0 0 0 0 0 0 0 0 0 0 0 0 0 0 0 0 0 0 0 0 0 0 0 0 0 0 0 0 -4 0 -3 -40 -7 -42 0 0
0 0 0 0 0 0 0 0 0 0 0 0 0 0 0 0 0 0 0 0 0 0 0 0 0 0 0 0 0 0 0 0 0 -2 -1 0 -4 -4 -4 -24 -71 0 0 0
0 0 0 0 0 0 0 0 0 0 0 0 0 0 0 0 0 0 0 0 0 0 0 0 0 0 0 0 0 0 0 0 0 0 -36 -57 -23 -4 -7 -18 -15 0 0 0
0 0 0 0 0 0 0 0 0 0 0 0 0 0 0 0 0 0 0 0 0 0 0 0 0 0 0 0 0 0 0 0 0 0 0 -3 -26 -2 -51 -12 -21 -46 0 -12
0 0 0 0 0 0 0 0 0 0 0 0 0 0 0 0 0 0 0 0 0 0 0 0 0 0 0 0 0 0 0 0 0 0 0 0 -6 -2 -2 -25 -36 -33 0 0
0 0 0 0 0 0 0 0 0 0 0 0 0 0 0 0 0 0 0 0 0 0 0 0 0 0 0 0 0 0 0 0 0 0 0 0 -13 0 -20 0 0 0 0 0
0 0 0 0 0 0 0 0 0 0 0 0 0 0 0 0 0 0 0 -1 0 0 0 -2 -2 0 0 0 0 0 0 0 0 0 0 0 0 -7 -25 0 0 0 0 0
0 0 0 0 0 0 0 0 0 0 0 0 0 0 0 0 0 0 0 0 0 0 -1 0 0 -1 -1 0 0 0 0 0 0 0 0 0 0 -1 0 0 0 0 0 0
0 0 0 0 0 0 0 0 0 0 0 0 0 0 0 0 0 0 0 0 0 0 -1 -1 -1 -1 -1 -1 -1 0 -1 0 0 0 0 0 0 -5 -26 0 0 0 0 0
0 0 0 0 0 0 0 0 0 0 0 0 0 0 0 0 0 0 0 0 0 -1 -2 -1 0 0 -1 0 -1 -2 -2 -1 -1 0 0 0 0 0 0 0 0 0 0 0
0 0 0 0 0 0 0 0 0 0 0 0 0 0 0 0 0 0 0 0 0 0 -1 -1 -1 -1 -1 0 0 0 -1 0 -1 -1 -1 0 0 0 0 0 0 0 0 0
0 0 0 0 0 0 0 0 0 0 0 0 0 0 0 0 0 0 0 0 0 -1 0 -1 0 0 0 0 0 0 0 0 -1 -1 0 0 0 0 0 0 0 0 0 0
0 0 0 0 0 0 0 0 0 0 0 0 0 0 0 0 0 0 0 0 0 0 0 0 0 0 0 0 0 0 0 0 0 0 0 0 0 0 0 0 0 0 0 0
0 0 0 0 0 0 0 0 0 0 0 0 0 0 0 0 0 0 0 0 0 0 0 0 0 0 0 0 0 0 0 0 0 0 0 0 0 0 0 0 0 0 0 0
0 0 0 0 0 0 0 0 0 0 0 0 0 0 0 0 0 0 0 0 0 0 0 0 0 0 0 0 0 0 0 0 0 0 0 0 0 0 0 0 0 0 0 0
0 0 0 0 0 0 0 0 0 0 0 0 0 0 0 0 0 0 0 0 0 0 0 0 0 0 0 0 0 0 0 0 0 0 0 0 0 0 0 0 0 0 0 0
0 0 0 0 0 0 0 0 0 0 0 0 0 0 0 0 0 0 0 0 0 0 0 0 0 0 0 0 0 0 0 0 0 0 0 0 0 0 0 0 0 0 0 0
0 0 0 0 0 0 0 0 0 0 0 0 0 0 0 0 0 0 0 0 0 0 0 0 0 0 0 0 0 0 0 0 0 0 0 0 0 0 0 0 0 0 0 0
-1 0 0 0 0 0 0 0 0 0 0 0 0 0 0 0 0 0 0 0 0 0 0 0 0 0 0 0 0 0 0 0 0 0 0 0 0 0 0 0 0 0 0 0
0 0 0 0 0 0 0 0 0 0 0 0 0 0 0 0 0 0 0 0 0 0 0 0 0 0 0 0 0 0 0 0 0 0 0 0 0 0 0 0 0 0 0 0
0 0 0 0 0 0 0 0 0 0 0 0 0 0 0 0 0 0 0 0 0 0 0 0 0 0 0 0 0 0 0 0 0 0 0 0 0 0 0 0 0 0 0 0
0 0 0 0 0 0 0 0 0 0 0 0 0 0 0 0 0 0 0 0 0 0 0 0 0 0 0 0 0 0 0 0 0 0 0 0 0 0 0 0 0 0 0 0
0 0 0 0 0 0 0 0 0 0 0 0 0 0 0 0 0 0 0 0 0 0 0 0 0 0 0 0 0 0 0 0 0 0 0 0 0 0 0 0 0 0 0 0
0 0 0 0 0 0 0 0 0 0 0 0 0 0 0 0 0 0 0 0 0 0 0 0 0 0 0 0 0 0 0 0 0 0 0 0 0 0 0 0 0 0 0 0
0 0 0 0 0 0 0 0 0 0 0 0 0 0 0 0 0 0 0 0 0 0 0 0 0 0 0 0 0 0 0 0 0 0 0 0 0 0 0 0 0 0 0 0
0 0 0 0 0 0 0 0 0 0 0 0 0 0 0 0 0 0 0 0 0 0 0 0 0 0 0 0 0 0 0 0 0 0 0 0 0 0 0 0 0 0 0 0
Wind_Speed
24 28 32 31 31 29 31 35 40 40 36 45 43 47 47 41 36 32 29 30 32 35 35 35 36 37 37 37 40 40 43 45 43 41 42 43 42 33 32 32 32 30 29 27
24 28 27 28 30 32 35 38 42 40 32 43 45 46 38 31 26 25 26 29 33 35 38 38 40 40 39 39 39 41 43 45 44 45 41 43 42 39 37 33 33 33 32 30
25 25 27 29 32 37 39 36 44 44 45 33 37 35 31 25 22 20 21 24 22 31 38 42 44 43 42 41 40 41 43 46 47 47 44 36 38 37 36 35 36 32 33 32
24 25 28 30 33 36 43 35 41 40 41 36 32 36 31 20 22 15 14 19 27 33 38 45 48 48 46 44 42 42 43 45 48 48 49 49 38 45 36 37 33 35 35 31
26 26 29 32 33 34 38 40 38 35 28 28 24 26 23 17 23 20 20 28 34 38 43 54 52 52 49 46 46 45 44 45 46 49 50 51 51 36 38 36 32 32 32 30
23 23 24 29 30 31 34 36 30 23 22 25 20 20 16 19 25 26 27 34 42 51 58 58 51 48 49 49 48 46 46 46 45 47 50 51 49 43 31 31 30 26 27 25
25 25 25 28 35 30 36 36 34 28 26 26 18 11 12 22 28 26 27 39 52 63 59 53 48 54 52 49 48 47 46 46 44 45 48 50 51 44 40 33 35 28 26 26
30 32 29 29 32 33 31 29 28 28 28 15 11 13 21 25 23 22 22 28 31 30 39 44 48 47 49 47 46 46 46 46 44 44 46 48 50 47 38 35 34 32 29 28
29 29 25 24 26 24 26 25 19 17 13 17 18 16 15 24 27 26 29 34 43 42 51 51 50 46 46 46 44 44 45 44 43 43 43 45 46 43 40 35 33 33 32 30
23 29 25 24 22 20 20 20 23 22 22 22 23 19 33 45 36 34 35 35 34 32 32 31 50 47 44 43 41 42 43 43 42 41 40 42 42 39 37 34 33 30 29 28
21 24 27 24 22 22 20 20 20 20 18 22 26 27 22 30 33 36 40 42 40 39 32 36 45 46 41 37 37 38 38 38 38 37 37 36 36 30 30 30 29 29 26 25
19 22 27 25 19 15 15 18 19 23 24 16 17 19 20 26 37 40 34 43 50 39 32 36 45 40 34 31 31 31 33 35 35 34 33 28 26 26 26 24 24 25 24 23
18 22 30 27 22 17 16 17 16 18 18 17 21 20 22 26 33 36 39 40 39 28 30 29 24 28 26 25 24 25 28 29 29 28 24 22 22 22 21 18 18 18 18 16
17 19 21 25 24 20 15 14 14 17 15 17 13 18 24 28 32 32 33 35 31 27 30 17 18 20 20 15 15 16 15 15 15 15 16 17 18 17 16 15 11 9 10 13
16 21 19 16 17 14 10 5 7 7 9 11 13 17 23 24 27 28 33 29 27 23 22 16 18 18 15 12 11 9 6 6 7 7 10 10 12 11 11 10 7 5 4 5
15 21 22 23 21 15 11 3 5 7 7 8 10 16 17 21 24 27 30 33 35 27 20 13 15 14 11 9 7 7 5 2 2 1 3 7 7 8 9 7 6 6 1 2
15 18 24 25 24 19 11 12 11 15 12 12 8 11 15 18 19 22 28 32 35 24 13 12 13 9 5 6 4 5 4 2 2 2 3 5 6 6 6 8 6 5 6 7
14 17 20 23 26 22 15 16 17 13 8 5 3 9 12 14 14 23 28 29 32 24 17 10 8 9 9 7 5 3 4 5 5 4 4 4 7 7 8 8 6 7 7 8
12 15 20 22 24 19 13 16 15 18 15 12 12 14 14 13 15 25 28 28 29 25 20 17 13 7 4 7 2 2 4 6 8 6 5 6 8 8 9 7 9 8 9 7
10 12 16 20 23 23 16 14 17 17 13 13 12 17 17 17 24 23 20 27 29 29 31 22 18 18 16 15 9 6 5 9 10 8 8 10 11 12 12 12 10 9 9 12
12 12 13 15 19 14 9 11 14 18 15 13 13 15 13 19 17 15 17 24 28 31 29 30 27 19 14 13 16 11 7 9 9 13 14 14 13 18 17 16 12 11 10 10
8 12 14 16 18 12 10 12 9 12 15 15 14 17 15 14 15 17 20 25 27 30 32 34 34 27 24 15 20 14 13 10 15 16 17 17 17 14 14 18 15 13 14 12
8 5 13 8 12 5 7 6 5 8 11 11 12 13 13 13 15 17 19 21 23 25 29 33 38 40 34 30 31 33 16 20 24 22 18 18 17 14 12 15 13 10 8 9
4 2 8 12 7 12 12 11 7 7 9 5 7 9 12 13 15 17 18 19 21 24 27 28 32 35 36 36 36 36 30 24 25 23 20 16 14 11 7 6 8 9 9 7
7 5 6 6 14 19 15 10 8 7 9 7 9 11 12 14 14 15 17 18 19 21 23 24 27 29 30 30 31 31 31 30 27 24 20 15 10 9 10 9 9 9 12 12
3 4 3 3 2 4 8 9 9 7 7 8 10 10 11 13 13 14 15 16 17 18 20 21 22 24 24 25 25 25 26 25 25 24 22 21 18 14 13 14 14 14 13 12
Wind_Direction
9 2 357 359 356 351 344 338 333 334 337 332 330 325 325 326 326 325 323 321 318 312 310 307 304 302 299 287 278 271 264 260 255 252 248 247 247 240 239 238 241 238 235 231
4 359 2 358 355 350 343 339 335 336 341 334 330 327 331 337 338 337 333 325 320 318 310 308 306 300 297 292 282 273 266 261 260 254 252 249 248 247 242 240 240 237 234 230
0 2 359 356 352 347 346 343 338 334 334 337 335 335 340 345 350 350 346 342 348 333 321 313 307 300 295 291 285 277 269 262 258 256 257 245 249 246 246 238 241 234 232 233
5 1 357 355 353 352 343 348 340 336 335 333 345 334 345 2 353 353 354 350 343 337 327 315 306 300 294 287 285 278 271 265 258 255 254 254 238 242 240 242 241 241 241 233
1 0 359 357 355 355 347 345 341 339 341 344 354 349 359 359 357 352 346 340 335 330 326 309 306 302 293 286 282 278 271 265 260 254 252 252 252 236 239 239 242 237 239 238
6 8 7 2 359 359 354 353 357 6 7 357 11 6 1 7 358 349 343 337 329 320 312 312 311 302 293 288 281 275 270 264 261 255 251 249 251 248 240 235 237 234 237 238
6 8 10 8 359 8 5 5 4 10 10 4 20 6 356 355 350 347 347 340 326 315 315 313 312 299 293 287 278 273 268 262 260 256 252 248 249 246 243 242 242 243 247 249
3 359 7 8 7 6 14 23 23 12 9 356 354 16 8 3 3 3 346 330 324 332 340 332 319 309 295 288 278 269 264 261 258 256 252 248 247 246 245 242 244 247 250 251
4 3 13 16 17 23 23 26 35 23 25 19 20 11 356 18 9 345 334 344 345 345 335 327 318 315 295 285 278 269 262 259 256 255 253 248 248 243 243 244 244 247 251 254
12 3 14 19 24 32 32 30 23 24 21 15 9 5 1 354 357 351 350 350 350 346 347 346 322 310 297 279 279 268 261 256 255 253 252 248 248 240 242 243 246 247 251 253
16 13 12 17 23 21 26 27 28 22 23 14 7 7 19 6 354 352 354 354 353 351 350 351 339 316 300 282 273 266 259 254 251 251 251 249 244 235 238 243 245 247 250 251
19 14 6 13 21 29 30 20 20 13 13 13 4 5 15 0 360 358 356 356 352 356 356 356 340 309 295 286 271 264 257 251 249 248 248 245 237 234 235 241 246 248 249 251
19 11 4 11 21 24 20 18 18 16 16 7 10 1 352 350 355 360 2 1 1 1 5 7 316 307 298 287 271 264 252 247 245 245 242 239 233 232 231 238 248 247 247 244
18 11 6 2 4 8 2 12 15 17 14 10 351 322 328 333 334 357 4 5 6 12 15 353 326 317 310 292 281 280 263 244 242 240 235 236 229 224 222 227 238 254 248 242
16 4 5 353 345 346 340 292 358 358 1 7 354 333 323 337 349 3 10 3 6 17 20 354 334 329 327 321 317 317 289 258 240 231 230 228 219 215 203 214 213 221 249 241
13 4 5 2 12 17 3 325 353 356 356 336 313 321 15 352 6 13 15 17 20 26 30 9 342 341 343 339 331 341 341 291 218 195 194 196 185 184 185 186 187 187 61 123
9 8 5 5 10 3 20 27 33 23 28 26 12 354 347 354 8 19 17 24 27 27 28 37 345 355 12 353 342 360 10 45 61 83 151 159 161 160 178 167 136 167 109 105
10 9 8 2 6 12 27 22 25 23 16 33 4 1 11 12 21 41 33 31 33 33 46 53 349 346 346 349 5 30 42 44 61 83 102 98 105 128 126 140 131 131 121 115
18 14 5 7 6 359 22 20 31 24 29 62 47 33 30 28 49 49 41 43 44 44 54 70 81 78 36 356 6 56 52 41 58 75 94 81 91 104 118 114 110 127 118 110
22 17 8 8 5 8 12 34 30 35 43 66 55 38 40 43 49 50 46 49 53 57 61 70 80 92 100 108 120 99 76 66 52 64 74 77 85 93 92 93 104 104 111 95
10 10 359 5 1 7 181 44 44 28 46 56 59 53 58 51 63 63 61 60 61 63 69 74 81 84 88 106 120 115 96 67 67 67 74 82 85 83 85 88 90 97 99 94
8 13 9 17 9 34 86 60 55 52 36 51 61 50 61 70 71 71 68 63 66 68 72 75 80 90 92 88 106 95 82 96 64 69 75 75 75 79 83 84 84 86 87 89
354 16 12 21 19 130 126 71 94 55 34 49 61 64 71 77 75 74 78 79 76 79 77 76 72 73 91 99 104 56 56 57 62 64 67 68 70 73 73 75 76 76 70 68
350 2 359 7 52 211 217 217 207 186 185 111 84 73 79 81 83 83 81 83 83 81 78 84 74 66 69 73 67 69 61 58 61 62 60 59 60 59 54 47 47 53 53 47
348 40 358 329 237 234 226 208 193 176 174 146 111 88 86 83 90 86 84 83 82 82 81 80 76 74 72 82 78 86 84 80 66 63 56 47 36 33 37 20 15 21 45 53
280 291 311 290 115 87 33 55 60 107 132 129 112 90 86 84 84 82 81 80 79 79 76 73 73 73 73 71 70 74 81 76 72 69 66 63 60 43 39 46 43 26 38 40